Location: Alafon
(8.4500°N, 4.2333°E)
Time: 02:21:53
(UTC+00:00)

deb Explorer IX - Pass Details

Date: 31 July 2021
Orbit: 545 x 1092 km, 38.8° (Epoch: 16 September)

Event Time Altitude Azimuth Distance (km) Brightness Sun altitude
Rises 19:36:49 0° 318° (NW) 3,737 ? -22.3°
Reaches altitude 10° 19:39:30 10° 322° (NW) 2,839 ? -22.9°
Maximum altitude 19:46:23 55° 39° (NE) 1,277 ? -24.4°
Enters shadow 19:48:05 46° 83° (E) 1,432 ? -24.8°
Drops below altitude 10° 19:53:27 10° 116° (ESE) 2,917 - -26.0°
Sets 19:56:14 0° 120° (ESE) 3,847 - -26.6°
